Location: Houston
(29.7630°N, 95.3630°W)
Time: 05:01:14
(UTC-05:00)

Saudisat 1A - Visible Passes

Search period start: 28 May 2015 00:00
Search period end: 07 June 2015 00:00
Orbit: 579 x 620 km, 64.6° (Epoch: 27 May)

Date Brightness Start Highest point End Pass type
(mag) Time Alt. Az. Time Alt. Az. Time Alt. Az.
28 May 11.5 22:03:46 10° WNW 22:05:47 13° NW 22:07:38 10° NNW visible
30 May 11.3 05:05:34 10° NNE 05:08:24 17° NE 05:11:23 10° E visible
30 May 9.9 20:43:54 10° SW 20:47:53 36° WNW 20:51:56 10° N visible
31 May 10.2 05:15:39 10° N 05:19:38 31° ENE 05:23:38 10° ESE visible
31 May 11.2 20:55:55 10° W 20:59:05 19° NW 21:02:10 10° N visible
01 Jun 8.7 05:26:15 10° NNW 05:30:43 62° ENE 05:35:08 10° SE visible
02 Jun 11.5 04:00:27 10° NNE 04:01:40 11° NE 04:03:10 10° ENE visible
02 Jun 8.0 05:37:13 10° NW 05:41:40 64° WSW 05:46:04 10° SSE visible
03 Jun 10.7 04:09:39 10° N 04:13:00 21° NE 04:16:26 10° ESE visible
03 Jun 8.8 05:48:35 10° NW 05:52:33 30° WSW 05:56:26 10° S visible
04 Jun 9.5 04:19:57 10° N 04:24:10 39° ENE 04:28:22 10° SE visible
05 Jun 8.1 04:30:41 10° NNW 04:35:12 80° ENE 04:39:40 10° SSE visible
06 Jun 11.0 03:04:01 10° NNE 03:06:17 14° NE 03:08:45 10° E visible
06 Jun 8.2 04:41:47 10° NW 04:46:07 49° WSW 04:48:47 21° S visible
